Location: Ponte Samoggia
(44.5667°N, 11.1333°E)
Time: 07:37:52
(UTC+00:00)

Cosmos 1975 Rocket - Visible Passes

Search period start: 06 October 2022 00:00
Search period end: 16 October 2022 00:00
Orbit: 603 x 632 km, 82.5° (Epoch: 06 October)

Date Brightness Start Highest point End Pass type
(mag) Time Alt. Az. Time Alt. Az. Time Alt. Az.
06 Oct 4.5 17:24:46 10° NNE 17:27:49 18° ENE 17:30:49 10° ESE visible
06 Oct 4.1 19:01:44 10° NNW 19:05:54 44° W 19:08:31 20° SSW visible
07 Oct 3.8 17:41:09 10° N 17:45:04 31° ENE 17:48:55 10° SE visible
07 Oct 5.2 19:19:12 10° NW 19:22:46 24° W 19:26:16 10° SW visible
08 Oct 3.1 17:57:53 10° N 18:02:12 55° ENE 18:06:28 10° SSE visible
08 Oct 6.0 19:37:17 10° NW 19:39:31 14° W 19:41:45 10° WSW visible
09 Oct 3.1 18:14:51 10° N 18:19:15 80° W 18:23:34 10° S visible
10 Oct 4.2 18:32:02 10° NNW 18:36:11 43° W 18:40:17 10° SSW visible
11 Oct 3.8 17:11:26 10° N 17:15:21 31° ENE 17:19:13 10° SE visible
11 Oct 5.4 18:49:32 10° NW 18:53:02 24° W 18:56:30 10° SW visible
12 Oct 3.1 17:28:10 10° N 17:32:29 56° E 17:36:44 10° SSE visible
12 Oct 6.2 19:07:38 10° NW 19:09:48 14° W 19:11:55 10° WSW visible
13 Oct 3.1 17:45:08 10° N 17:49:31 79° W 17:53:50 10° S visible
14 Oct 4.4 18:02:20 10° NNW 18:06:27 42° W 18:10:31 10° SSW visible
15 Oct 6.8 05:00:51 10° E 05:01:54 11° E 05:02:57 10° ENE visible
15 Oct 5.5 18:19:50 10° NW 18:23:17 23° W 18:26:43 10° SW visible
